Regional Weather Roundup
Issued by NWS

Home | Current Version | Previous Version | Graphics & Text | Print | Product List | Glossary On
Versions: 1 2 3 4 5 6 7 8 9 10 11 12 13 14 15 16 17 18 19 20 21 22 23 24 25 26 27 28 29 30 31 32 33 34 35 36 37 38 39 40 41 42 43 44 45 46 47 48 49 50
000
ASUS43 KTOP 040408
RWRKS

WEATHER ROUNDUP FOR KANSAS
NATIONAL WEATHER SERVICE GOODLAND KS
1000 PM CST TUE MAR 03 2015

NOTE:  "FAIR" INDICATES FEW OR NO CLOUDS BELOW 12,000 FEET WITH NO
SIGNIFICANT WEATHER AND/OR OBSTRUCTIONS TO VISIBILITY.

KSZ001>006-013>018-027>032-041>047-040500-
NORTHWEST KANSAS

CITY           SKY/WX    TMP DP  RH WIND       PRES   REMARKS
GOODLAND       CLOUDY    24  14  65 E12       29.98R WCI  13
HAYS           CLOUDY    27   7  43 NE12      30.04R WCI  16
HILL CITY      CLOUDY    26   7  44 NE14      30.06R WCI  14
RUSSELL        CLEAR     24  13  62 N12       30.03R WCI  13
$$

KSZ061>065-074>080-084>089-040500-
SOUTHWEST KANSAS

CITY           SKY/WX    TMP DP  RH WIND       PRES   REMARKS
DODGE CITY     CLOUDY    29  18  63 N16       29.99R WCI  17
ELKHART          N/A     29  19  66 N14         N/A  WCI  18
GARDEN CITY    CLOUDY    28  18  66 NE15      29.99R WCI  16
GREAT BEND     PTCLDY    27  14  59 N12       30.03R WCI  16
LIBERAL        CLOUDY    34  23  64 N14       29.96R WCI  24
PRATT          CLOUDY    32  19  59 NE14      30.00R WCI  22
$$

KSZ066>073-081>083-090>101-040500-
SOUTHEAST KANSAS

CITY           SKY/WX    TMP DP  RH WIND       PRES   REMARKS
CHANUTE        LGT RAIN  38  30  73 N18       29.97R WCI  28
COFFEYVILLE    LGT RAIN  42  36  79 N9        29.94R
HUTCHINSON     CLOUDY    32  18  56 N13G23    29.99R WCI  22
MEDICINE LODGE   N/A     35  22  58 NE14      29.97R WCI  26
NEWTON         CLOUDY    30  18  59 N18       29.98R WCI  18
PARSONS        CLOUDY    40  35  83 N9        29.96R
WICHITA INTL   CLOUDY    35  21  56 N18G26    29.98R WCI  24
WICHITA JABRA  CLOUDY    33  22  63 N15       29.97R WCI  23
WICHITA MCCONL MOCLDY    34  23  63 NE14      29.97R WCI  25
WINFIELD       CLOUDY    37  28  70 N16       29.97R WCI  28
$$

KSZ007>012-019>026-033>040-048>060-102>105-040500-
NORTHEAST KANSAS

CITY           SKY/WX    TMP DP  RH WIND       PRES   REMARKS
CONCORDIA        N/A     24   8  50 NE9       30.06R
EMPORIA        CLOUDY    32  21  64 N15G24    29.97R WCI  22
LAWRENCE       CLOUDY    32  21  64 N13       30.00R WCI  22
MANHATTAN      MOCLDY    30  14  51 N14G23    30.03R WCI  19
MARYSVILLE     MOCLDY    25  10  54 N17       30.06R WCI  11
OLATHE IND     CLOUDY    32  25  75 N18       29.98R WCI  20
OLATHE EXE     CLOUDY    33  25  72 N15       29.95R WCI  23
SALINA         MOCLDY    31  13  47 N18       30.03S WCI  19
TOPEKA BILLARD CLOUDY    31  21  66 N9        30.03R
TOPEKA FORBES  CLOUDY    32  21  64 N16G26    29.99R WCI  21
$$



USA.gov is the U.S. government's official web portal to all federal, state and local government web resources and services.